| time (UTC) | temp F | wind direction | speed MPH | gust MPH | rain 1hr in | rain 24hr in | rain mn in | humidity % | barometer mb |
| 20260506215735 | 62 | 211 | 1.0 | 3.0 | 0.00 | 0.00 | 0.00 | 39 | 1018.0 |
| 20260506215235 | 61 | 276 | 4.0 | 5.0 | 0.00 | 0.00 | 0.00 | 40 | 1018.0 |
| 20260506214735 | 61 | 286 | 4.0 | 5.0 | 0.00 | 0.00 | 0.00 | 39 | 1018.0 |
| 20260506214235 | 61 | 0 | 1.0 | 3.0 | 0.00 | 0.00 | 0.00 | 38 | 1018.0 |
| 20260506213735 | 61 | 331 | 5.0 | 5.0 | 0.00 | 0.00 | 0.00 | 43 | 1018.0 |
| 20260506213236 | 60 | 286 | 3.0 | 4.0 | 0.00 | 0.00 | 0.00 | 42 | 1018.0 |
| 20260506212735 | 59 | 301 | 5.0 | 5.0 | 0.00 | 0.00 | 0.00 | 44 | 1018.0 |
| 20260506212235 | 60 | 312 | 2.0 | 5.0 | 0.00 | 0.00 | 0.00 | 40 | 1018.0 |
| 20260506211736 | 61 | 312 | 3.0 | 5.0 | 0.00 | 0.00 | 0.00 | 39 | 1018.0 |
| 20260506211236 | 58 | 335 | 2.0 | 2.0 | 0.00 | 0.00 | 0.00 | 42 | 1018.0 |
| 20260506210735 | 59 | 288 | 2.0 | 4.0 | 0.00 | 0.00 | 0.00 | 42 | 1018.0 |
| 20260506210236 | 59 | 333 | 5.0 | 6.0 | 0.00 | 0.00 | 0.00 | 43 | 1018.0 |
| 20260506205738 | 60 | 319 | 3.0 | 6.0 | 0.00 | 0.00 | 0.00 | 40 | 1018.0 |
| 20260506205235 | 62 | 14 | 3.0 | 4.0 | 0.00 | 0.00 | 0.00 | 40 | 1018.0 |
| 20260506204736 | 60 | 226 | 2.0 | 3.0 | 0.00 | 0.00 | 0.00 | 39 | 1018.0 |
| 20260506204236 | 61 | 279 | 3.0 | 5.0 | 0.00 | 0.00 | 0.00 | 39 | 1018.0 |
| 20260506203735 | 61 | 304 | 3.0 | 5.0 | 0.00 | 0.00 | 0.00 | 45 | 1018.0 |
| 20260506203235 | 59 | 351 | 1.0 | 5.0 | 0.00 | 0.00 | 0.00 | 41 | 1018.0 |
| 20260506202736 | 60 | 335 | 2.0 | 6.0 | 0.00 | 0.00 | 0.00 | 42 | 1019.0 |
| 20260506202236 | 61 | 6 | 3.0 | 6.0 | 0.00 | 0.00 | 0.00 | 41 | 1019.0 |
| 20260506201735 | 60 | 287 | 3.0 | 5.0 | 0.00 | 0.00 | 0.00 | 41 | 1019.0 |
| 20260506201236 | 60 | 309 | 5.0 | 6.0 | 0.00 | 0.00 | 0.00 | 44 | 1019.0 |
| 20260506200735 | 61 | 337 | 6.0 | 8.0 | 0.00 | 0.00 | 0.00 | 39 | 1019.0 |
| 20260506200235 | 60 | 272 | 2.0 | 4.0 | 0.00 | 0.00 | 0.00 | 43 | 1019.0 |
| 20260506195735 | 60 | 272 | 4.0 | 5.0 | 0.00 | 0.00 | 0.00 | 39 | 1019.0 |
| 20260506195235 | 61 | 7 | 1.0 | 7.0 | 0.00 | 0.00 | 0.00 | 40 | 1019.0 |
| 20260506194736 | 60 | 332 | 2.0 | 6.0 | 0.00 | 0.00 | 0.00 | 38 | 1019.0 |
| 20260506194238 | 60 | 333 | 5.0 | 5.0 | 0.00 | 0.00 | 0.00 | 39 | 1019.0 |
| 20260506193735 | 60 | 55 | 0.0 | 6.0 | 0.00 | 0.00 | 0.00 | 39 | 1019.0 |
| 20260506193235 | 60 | 276 | 3.0 | 6.0 | 0.00 | 0.00 | 0.00 | 38 | 1019.0 |
| 20260506192735 | 60 | 282 | 7.0 | 8.0 | 0.00 | 0.00 | 0.00 | 38 | 1019.0 |
| 20260506192236 | 59 | 297 | 3.0 | 5.0 | 0.00 | 0.00 | 0.00 | 42 | 1019.0 |
| 20260506191735 | 59 | 17 | 1.0 | 5.0 | 0.00 | 0.00 | 0.00 | 42 | 1019.0 |
| 20260506191236 | 60 | 277 | 3.0 | 6.0 | 0.00 | 0.00 | 0.00 | 45 | 1019.0 |
| 20260506190735 | 59 | 344 | 3.0 | 6.0 | 0.00 | 0.00 | 0.00 | 45 | 1019.0 |
| 20260506190235 | 60 | 50 | 5.0 | 8.0 | 0.00 | 0.00 | 0.00 | 44 | 1019.0 |
| 20260506185736 | 59 | 54 | 2.0 | 5.0 | 0.00 | 0.00 | 0.00 | 41 | 1019.0 |
| 20260506185236 | 59 | 297 | 3.0 | 5.0 | 0.00 | 0.00 | 0.00 | 44 | 1019.0 |
| 20260506184735 | 59 | 64 | 2.0 | 6.0 | 0.00 | 0.00 | 0.00 | 45 | 1019.0 |
| 20260506184236 | 58 | 347 | 2.0 | 3.0 | 0.00 | 0.00 | 0.00 | 43 | 1018.0 |
| 20260506183736 | 58 | 49 | 1.0 | 6.0 | 0.00 | 0.00 | 0.00 | 46 | 1019.0 |
| 20260506183237 | 59 | 294 | 4.0 | 5.0 | 0.00 | 0.00 | 0.00 | 45 | 1019.0 |
| 20260506182737 | 58 | 324 | 5.0 | 7.0 | 0.00 | 0.00 | 0.00 | 47 | 1019.0 |
| 20260506182236 | 58 | 288 | 3.0 | 8.0 | 0.00 | 0.00 | 0.00 | 45 | 1019.0 |
| 20260506181735 | 58 | 241 | 3.0 | 4.0 | 0.00 | 0.00 | 0.00 | 49 | 1019.0 |
| 20260506181236 | 58 | 288 | 4.0 | 6.0 | 0.00 | 0.00 | 0.00 | 43 | 1019.0 |
| 20260506180737 | 59 | 284 | 5.0 | 6.0 | 0.00 | 0.00 | 0.00 | 47 | 1019.0 |
| 20260506180236 | 58 | 324 | 4.0 | 5.0 | 0.00 | 0.00 | 0.00 | 44 | 1019.0 |
| 20260506175736 | 58 | 315 | 4.0 | 11.0 | 0.00 | 0.00 | 0.00 | 42 | 1019.0 |
| 20260506175236 | 57 | 295 | 3.0 | 7.0 | 0.00 | 0.00 | 0.00 | 49 | 1019.0 |
| 20260506174736 | 57 | 282 | 5.0 | 5.0 | 0.00 | 0.00 | 0.00 | 52 | 1019.0 |
| 20260506174237 | 57 | 33 | 4.0 | 11.0 | 0.00 | 0.00 | 0.00 | 52 | 1019.0 |
| 20260506173735 | 57 | 23 | 3.0 | 8.0 | 0.00 | 0.00 | 0.00 | 57 | 1019.0 |
| 20260506173236 | 57 | 322 | 3.0 | 7.0 | 0.00 | 0.00 | 0.00 | 63 | 1019.0 |
| 20260506172736 | 56 | 352 | 4.0 | 7.0 | 0.00 | 0.00 | 0.00 | 64 | 1019.0 |
| 20260506172238 | 56 | 358 | 2.0 | 6.0 | 0.00 | 0.00 | 0.00 | 63 | 1019.0 |
| 20260506171736 | 56 | 315 | 9.0 | 9.0 | 0.00 | 0.00 | 0.00 | 65 | 1019.0 |
| 20260506171236 | 55 | 315 | 3.0 | 4.0 | 0.00 | 0.00 | 0.00 | 65 | 1019.0 |
| 20260506170736 | 55 | 338 | 3.0 | 6.0 | 0.00 | 0.00 | 0.00 | 70 | 1019.0 |
| 20260506170236 | 54 | 287 | 1.0 | 4.0 | 0.00 | 0.00 | 0.00 | 72 | 1019.0 |
| 20260506165735 | 54 | 349 | 4.0 | 10.0 | 0.00 | 0.00 | 0.00 | 71 | 1019.0 |
| 20260506165237 | 54 | 280 | 0.0 | 5.0 | 0.00 | 0.00 | 0.00 | 72 | 1019.0 |
| 20260506164736 | 54 | 305 | 6.0 | 7.0 | 0.00 | 0.00 | 0.00 | 72 | 1019.0 |
| 20260506164236 | 53 | 301 | 3.0 | 5.0 | 0.00 | 0.00 | 0.00 | 72 | 1019.0 |
| 20260506163737 | 53 | 337 | 5.0 | 6.0 | 0.00 | 0.00 | 0.00 | 77 | 1019.0 |
| 20260506162751 | 52 | 294 | 3.0 | 7.0 | 0.00 | 0.00 | 0.00 | 78 | 1019.0 |
| 20260506162237 | 52 | 47 | 1.0 | 5.0 | 0.00 | 0.00 | 0.00 | 76 | 1019.0 |
| 20260506161736 | 52 | 287 | 3.0 | 5.0 | 0.00 | 0.00 | 0.00 | 80 | 1019.0 |
| 20260506161240 | 52 | 350 | 2.0 | 5.0 | 0.00 | 0.00 | 0.00 | 79 | 1019.0 |
| 20260506160737 | 52 | 256 | 2.0 | 5.0 | 0.00 | 0.00 | 0.00 | 79 | 1019.0 |
| 20260506160237 | 52 | 280 | 2.0 | 5.0 | 0.00 | 0.00 | 0.00 | 83 | 1019.0 |
| 20260506155736 | 51 | 309 | 2.0 | 4.0 | 0.00 | 0.00 | 0.00 | 83 | 1019.0 |
| 20260506155236 | 51 | 307 | 2.0 | 5.0 | 0.00 | 0.00 | 0.00 | 84 | 1019.0 |
| 20260506154736 | 51 | 321 | 1.0 | 4.0 | 0.00 | 0.00 | 0.00 | 83 | 1018.0 |
| 20260506154236 | 51 | 243 | 2.0 | 4.0 | 0.00 | 0.00 | 0.00 | 86 | 1018.0 |
| 20260506153736 | 51 | 286 | 3.0 | 4.0 | 0.00 | 0.00 | 0.00 | 85 | 1018.0 |
| 20260506153235 | 51 | 10 | 1.0 | 3.0 | 0.00 | 0.00 | 0.00 | 86 | 1018.0 |
| 20260506152735 | 50 | 257 | 3.0 | 3.0 | 0.00 | 0.00 | 0.00 | 86 | 1018.0 |
| 20260506152236 | 50 | 219 | 2.0 | 3.0 | 0.00 | 0.00 | 0.00 | 85 | 1018.0 |
| 20260506151735 | 50 | 200 | 1.0 | 3.0 | 0.00 | 0.00 | 0.00 | 88 | 1018.0 |
| 20260506151235 | 50 | 237 | 1.0 | 4.0 | 0.00 | 0.00 | 0.00 | 89 | 1018.0 |
| 20260506150736 | 50 | 311 | 3.0 | 4.0 | 0.00 | 0.00 | 0.00 | 88 | 1018.0 |
| 20260506150235 | 50 | 195 | 1.0 | 3.0 | 0.00 | 0.00 | 0.00 | 87 | 1018.0 |
| 20260506145736 | 50 | 212 | 1.0 | 3.0 | 0.00 | 0.00 | 0.00 | 90 | 1018.0 |
| 20260506145236 | 50 | 241 | 1.0 | 3.0 | 0.00 | 0.00 | 0.00 | 88 | 1018.0 |
| 20260506144735 | 50 | 246 | 1.0 | 3.0 | 0.00 | 0.00 | 0.00 | 88 | 1018.0 |
| 20260506144237 | 49 | 243 | 1.0 | 3.0 | 0.00 | 0.00 | 0.00 | 87 | 1018.0 |
| 20260506143737 | 49 | 248 | 1.0 | 4.0 | 0.00 | 0.00 | 0.00 | 88 | 1018.0 |
| 20260506143236 | 49 | 257 | 3.0 | 4.0 | 0.00 | 0.00 | 0.00 | 90 | 1018.0 |
| 20260506142736 | 49 | 259 | 3.0 | 6.0 | 0.00 | 0.00 | 0.00 | 90 | 1018.0 |
| 20260506142236 | 49 | 293 | 3.0 | 5.0 | 0.00 | 0.00 | 0.00 | 90 | 1018.0 |
| 20260506141736 | 49 | 281 | 4.0 | 5.0 | 0.00 | 0.00 | 0.00 | 91 | 1018.0 |
| 20260506141236 | 49 | 324 | 3.0 | 4.0 | 0.00 | 0.00 | 0.00 | 91 | 1018.0 |
| 20260506140735 | 48 | 265 | 3.0 | 4.0 | 0.00 | 0.00 | 0.00 | 91 | 1018.0 |
| 20260506140236 | 48 | 268 | 2.0 | 4.0 | 0.00 | 0.00 | 0.00 | 93 | 1018.0 |
| 20260506135736 | 48 | 217 | 2.0 | 3.0 | 0.00 | 0.00 | 0.00 | 93 | 1018.0 |
| 20260506135235 | 48 | 238 | 1.0 | 5.0 | 0.00 | 0.00 | 0.00 | 94 | 1018.0 |
| 20260506134735 | 48 | 273 | 3.0 | 3.0 | 0.00 | 0.00 | 0.00 | 96 | 1018.0 |
| 20260506134236 | 48 | 225 | 1.0 | 3.0 | 0.00 | 0.00 | 0.00 | 96 | 1018.0 |
| 20260506133736 | 48 | 227 | 1.0 | 3.0 | 0.00 | 0.00 | 0.00 | 97 | 1018.0 |
| 20260506133236 | 48 | 294 | 2.0 | 4.0 | 0.00 | 0.00 | 0.00 | 97 | 1018.0 |
| 20260506132735 | 47 | 225 | 2.0 | 4.0 | 0.00 | 0.00 | 0.00 | 97 | 1018.0 |
| 20260506132236 | 47 | 222 | 2.0 | 3.0 | 0.00 | 0.00 | 0.00 | 97 | 1018.0 |
| 20260506131736 | 47 | 256 | 2.0 | 3.0 | 0.00 | 0.00 | 0.00 | 97 | 1018.0 |
| 20260506131236 | 47 | 251 | 1.0 | 2.0 | 0.00 | 0.00 | 0.00 | 97 | 1018.0 |
| 20260506130736 | 47 | 239 | 0.0 | 3.0 | 0.00 | 0.00 | 0.00 | 97 | 1018.0 |
| 20260506130235 | 47 | 274 | 1.0 | 2.0 | 0.00 | 0.00 | 0.00 | 97 | 1018.0 |
| 20260506125736 | 47 | 244 | 3.0 | 3.0 | 0.00 | 0.00 | 0.00 | 97 | 1018.0 |
| 20260506125236 | 47 | 247 | 0.0 | 3.0 | 0.00 | 0.00 | 0.00 | 97 | 1018.0 |
| 20260506124736 | 47 | 14 | 1.0 | 3.0 | 0.00 | 0.00 | 0.00 | 97 | 1017.0 |
| 20260506124235 | 47 | 238 | 2.0 | 3.0 | 0.00 | 0.00 | 0.00 | 97 | 1018.0 |
| 20260506123736 | 46 | 275 | 2.0 | 2.0 | 0.00 | 0.00 | 0.00 | 97 | 1018.0 |
| 20260506123235 | 46 | 178 | 1.0 | 2.0 | 0.00 | 0.00 | 0.00 | 97 | 1018.0 |
| 20260506122735 | 46 | 256 | 2.0 | 3.0 | 0.00 | 0.00 | 0.00 | 97 | 1018.0 |
| 20260506122236 | 46 | 107 | 0.0 | 3.0 | 0.00 | 0.00 | 0.00 | 97 | 1018.0 |
| 20260506121736 | 46 | 268 | 2.0 | 3.0 | 0.00 | 0.00 | 0.00 | 97 | 1018.0 |
| 20260506121240 | 46 | 271 | 1.0 | 3.0 | 0.00 | 0.00 | 0.00 | 98 | 1017.0 |
| 20260506120735 | 46 | 244 | 1.0 | 4.0 | 0.00 | 0.00 | 0.00 | 98 | 1018.0 |
| 20260506120235 | 46 | 223 | 3.0 | 3.0 | 0.00 | 0.00 | 0.00 | 97 | 1017.0 |
| 20260506115735 | 46 | 293 | 1.0 | 4.0 | 0.00 | 0.00 | 0.00 | 97 | 1017.0 |
| 20260506115235 | 46 | 359 | 2.0 | 3.0 | 0.00 | 0.00 | 0.00 | 98 | 1017.0 |
| 20260506114736 | 46 | 250 | 1.0 | 3.0 | 0.00 | 0.00 | 0.00 | 97 | 1017.0 |
| 20260506114236 | 46 | 117 | 1.0 | 3.0 | 0.00 | 0.00 | 0.00 | 97 | 1018.0 |
| 20260506113735 | 46 | 242 | 2.0 | 5.0 | 0.00 | 0.00 | 0.00 | 98 | 1018.0 |
| 20260506113236 | 46 | 210 | 2.0 | 3.0 | 0.00 | 0.00 | 0.00 | 98 | 1017.0 |
| 20260506112735 | 46 | 277 | 3.0 | 3.0 | 0.00 | 0.00 | 0.00 | 98 | 1017.0 |
| 20260506112236 | 46 | 245 | 0.0 | 3.0 | 0.00 | 0.00 | 0.00 | 98 | 1017.0 |
| 20260506111736 | 46 | 229 | 1.0 | 3.0 | 0.00 | 0.00 | 0.00 | 98 | 1017.0 |
| 20260506111235 | 46 | 258 | 1.0 | 2.0 | 0.00 | 0.00 | 0.00 | 98 | 1017.0 |
| 20260506110735 | 46 | 298 | 2.0 | 2.0 | 0.00 | 0.00 | 0.00 | 98 | 1017.0 |
| 20260506110242 | 46 | 141 | 2.0 | 3.0 | 0.00 | 0.00 | 0.00 | 98 | 1016.0 |
| 20260506105736 | 46 | 253 | 2.0 | 2.0 | 0.00 | 0.00 | 0.00 | 98 | 1016.0 |
| 20260506105237 | 46 | 37 | 1.0 | 3.0 | 0.00 | 0.00 | 0.00 | 98 | 1016.0 |
| 20260506104736 | 46 | 136 | 0.0 | 3.0 | 0.00 | 0.00 | 0.00 | 98 | 1016.0 |
| 20260506104236 | 46 | 314 | 1.0 | 3.0 | 0.00 | 0.00 | 0.00 | 98 | 1016.0 |
| 20260506103735 | 46 | 330 | 0.0 | 3.0 | 0.00 | 0.00 | 0.00 | 98 | 1015.0 |
| 20260506103236 | 46 | 301 | 2.0 | 2.0 | 0.00 | 0.00 | 0.00 | 98 | 1015.0 |
| 20260506102736 | 46 | 196 | 1.0 | 3.0 | 0.00 | 0.00 | 0.00 | 98 | 1016.0 |
| 20260506102235 | 46 | 284 | 1.0 | 3.0 | 0.00 | 0.00 | 0.00 | 98 | 1016.0 |
| 20260506101735 | 46 | 299 | 1.0 | 3.0 | 0.00 | 0.00 | 0.00 | 98 | 1016.0 |
| 20260506101235 | 46 | 281 | 2.0 | 3.0 | 0.00 | 0.00 | 0.00 | 98 | 1015.0 |
| 20260506100735 | 45 | 160 | 0.0 | 2.0 | 0.00 | 0.00 | 0.00 | 98 | 1016.0 |
| 20260506100236 | 46 | 206 | 1.0 | 3.0 | 0.00 | 0.00 | 0.00 | 98 | 1015.0 |
| 20260506095736 | 46 | 280 | 1.0 | 3.0 | 0.00 | 0.00 | 0.00 | 98 | 1016.0 |
| 20260506095235 | 46 | 253 | 0.0 | 4.0 | 0.00 | 0.00 | 0.00 | 98 | 1016.0 |
| 20260506094735 | 46 | 310 | 2.0 | 3.0 | 0.00 | 0.00 | 0.00 | 98 | 1015.0 |
| 20260506094236 | 46 | 324 | 1.0 | 3.0 | 0.00 | 0.00 | 0.00 | 98 | 1015.0 |
| 20260506093735 | 46 | 209 | 1.0 | 3.0 | 0.00 | 0.00 | 0.00 | 98 | 1016.0 |
| 20260506093236 | 46 | 174 | 1.0 | 3.0 | 0.00 | 0.00 | 0.00 | 98 | 1016.0 |
| 20260506092736 | 46 | 197 | 1.0 | 3.0 | 0.00 | 0.00 | 0.00 | 98 | 1015.0 |
| 20260506092236 | 46 | 314 | 0.0 | 3.0 | 0.00 | 0.00 | 0.00 | 98 | 1015.0 |
| 20260506091735 | 46 | 273 | 2.0 | 4.0 | 0.00 | 0.00 | 0.00 | 98 | 1016.0 |
| 20260506091235 | 46 | 59 | 2.0 | 3.0 | 0.00 | 0.00 | 0.00 | 98 | 1016.0 |
| 20260506090737 | 46 | 238 | 0.0 | 4.0 | 0.00 | 0.00 | 0.00 | 98 | 1016.0 |
| 20260506090235 | 46 | 2 | 1.0 | 3.0 | 0.00 | 0.00 | 0.00 | 98 | 1016.0 |
| 20260506085735 | 46 | 235 | 2.0 | 3.0 | 0.00 | 0.00 | 0.00 | 98 | 1016.0 |
| 20260506085236 | 46 | 77 | 2.0 | 3.0 | 0.00 | 0.00 | 0.00 | 98 | 1016.0 |
| 20260506084736 | 46 | 302 | 1.0 | 4.0 | 0.00 | 0.00 | 0.00 | 98 | 1016.0 |
| 20260506084236 | 46 | 359 | 2.0 | 4.0 | 0.00 | 0.00 | 0.00 | 98 | 1016.0 |
| 20260506083735 | 46 | 275 | 4.0 | 4.0 | 0.00 | 0.00 | 0.00 | 98 | 1015.0 |
| 20260506083236 | 46 | 283 | 1.0 | 3.0 | 0.00 | 0.00 | 0.00 | 98 | 1015.0 |
| 20260506082735 | 46 | 247 | 1.0 | 3.0 | 0.00 | 0.00 | 0.00 | 98 | 1015.0 |
| 20260506082236 | 46 | 267 | 1.0 | 4.0 | 0.00 | 0.00 | 0.00 | 98 | 1016.0 |
| 20260506081736 | 46 | 240 | 2.0 | 6.0 | 0.00 | 0.00 | 0.00 | 98 | 1015.0 |
| 20260506081235 | 46 | 314 | 3.0 | 5.0 | 0.00 | 0.00 | 0.00 | 98 | 1015.0 |
| 20260506080736 | 46 | 39 | 3.0 | 4.0 | 0.00 | 0.00 | 0.00 | 98 | 1015.0 |
| 20260506080236 | 46 | 196 | 2.0 | 5.0 | 0.00 | 0.00 | 0.00 | 98 | 1015.0 |
| 20260506073235 | 46 | 301 | 2.0 | 4.0 | 0.00 | 0.00 | 0.00 | 98 | 1015.0 |
| 20260506072736 | 46 | 309 | 2.0 | 5.0 | 0.00 | 0.00 | 0.00 | 98 | 1015.0 |
| 20260506072237 | 46 | 30 | 0.0 | 4.0 | 0.00 | 0.00 | 0.00 | 98 | 1015.0 |
| 20260506071736 | 46 | 16 | 1.0 | 3.0 | 0.00 | 0.00 | 0.00 | 97 | 1015.0 |
| 20260506071235 | 46 | 138 | 2.0 | 4.0 | 0.00 | 0.00 | 0.00 | 98 | 1015.0 |
| 20260506070737 | 46 | 12 | 1.0 | 3.0 | 0.00 | 0.00 | 0.00 | 98 | 1016.0 |
| 20260506070236 | 46 | 266 | 1.0 | 5.0 | 0.00 | 0.00 | 0.00 | 97 | 1015.0 |
| 20260506062236 | 46 | 338 | 1.0 | 5.0 | 0.00 | 0.00 | 0.00 | 97 | 1015.0 |
| 20260506061735 | 46 | 261 | 1.0 | 4.0 | 0.00 | 0.00 | 0.00 | 97 | 1015.0 |
| 20260506061235 | 46 | 231 | 2.0 | 4.0 | 0.00 | 0.00 | 0.00 | 97 | 1015.0 |
| 20260506060735 | 46 | 38 | 2.0 | 5.0 | 0.00 | 0.00 | 0.00 | 97 | 1015.0 |
| 20260506060236 | 46 | 150 | 3.0 | 5.0 | 0.00 | 0.00 | 0.00 | 97 | 1015.0 |
| 20260506051236 | 46 | 331 | 1.0 | 5.0 | 0.00 | 0.00 | 0.00 | 97 | 1015.0 |
| 20260506050736 | 46 | 235 | 5.0 | 7.0 | 0.00 | 0.00 | 0.00 | 97 | 1015.0 |
| 20260506050235 | 46 | 296 | 1.0 | 3.0 | 0.00 | 0.00 | 0.00 | 97 | 1015.0 |
| 20260506044735 | 46 | 158 | 2.0 | 3.0 | 0.00 | 0.00 | 0.00 | 97 | 1014.0 |
| 20260506044236 | 46 | 51 | 2.0 | 8.0 | 0.00 | 0.00 | 0.00 | 97 | 1015.0 |
| 20260506043736 | 45 | 195 | 3.0 | 5.0 | 0.00 | 0.00 | 0.00 | 97 | 1015.0 |
| 20260506043235 | 45 | 78 | 2.0 | 6.0 | 0.00 | 0.00 | 0.00 | 97 | 1014.0 |
| 20260506042735 | 45 | 124 | 2.0 | 7.0 | 0.00 | 0.00 | 0.00 | 97 | 1015.0 |
| 20260506042235 | 45 | 80 | 4.0 | 7.0 | 0.00 | 0.00 | 0.00 | 97 | 1015.0 |
| 20260506041735 | 45 | 219 | 3.0 | 6.0 | 0.00 | 0.00 | 0.00 | 97 | 1015.0 |
| 20260506041236 | 45 | 187 | 2.0 | 2.0 | 0.00 | 0.00 | 0.00 | 97 | 1015.0 |
| 20260506040735 | 45 | 239 | 1.0 | 8.0 | 0.00 | 0.00 | 0.00 | 97 | 1015.0 |
| 20260506040236 | 45 | 2 | 5.0 | 8.0 | 0.00 | 0.00 | 0.00 | 97 | 1015.0 |
| 20260506035735 | 45 | 178 | 1.0 | 3.0 | 0.00 | 0.00 | 0.00 | 97 | 1015.0 |
| 20260506035236 | 45 | 302 | 1.0 | 2.0 | 0.00 | 0.00 | 0.00 | 97 | 1015.0 |
| 20260506034735 | 45 | 274 | 2.0 | 2.0 | 0.00 | 0.00 | 0.00 | 97 | 1015.0 |
| 20260506034236 | 45 | 293 | 1.0 | 2.0 | 0.00 | 0.00 | 0.00 | 97 | 1015.0 |
| 20260506033737 | 45 | 304 | 1.0 | 2.0 | 0.00 | 0.00 | 0.00 | 96 | 1015.0 |
| 20260506033235 | 45 | 150 | 0.0 | 1.0 | 0.00 | 0.00 | 0.00 | 96 | 1015.0 |
| 20260506032736 | 45 | 228 | 0.0 | 2.0 | 0.00 | 0.00 | 0.00 | 96 | 1015.0 |
| 20260506032235 | 45 | 300 | 1.0 | 2.0 | 0.00 | 0.00 | 0.00 | 96 | 1015.0 |
| 20260506031735 | 45 | 50 | 0.0 | 0.0 | 0.00 | 0.00 | 0.00 | 96 | 1014.0 |
| 20260506031236 | 45 | 129 | 0.0 | 0.0 | 0.00 | 0.00 | 0.00 | 96 | 1015.0 |
| 20260506030735 | 45 | 249 | 0.0 | 1.0 | 0.00 | 0.00 | 0.00 | 96 | 1014.0 |
| 20260506030235 | 45 | 16 | 0.0 | 0.0 | 0.00 | 0.00 | 0.00 | 96 | 1014.0 |
| 20260506025736 | 45 | 126 | 0.0 | 1.0 | 0.00 | 0.00 | 0.00 | 96 | 1014.0 |
| 20260506025235 | 44 | 230 | 0.0 | 2.0 | 0.00 | 0.00 | 0.00 | 96 | 1014.0 |
| 20260506024735 | 45 | 16 | 1.0 | 2.0 | 0.00 | 0.00 | 0.00 | 96 | 1014.0 |
| 20260506024235 | 45 | 80 | 1.0 | 2.0 | 0.00 | 0.00 | 0.00 | 96 | 1014.0 |
| 20260506023735 | 45 | 51 | 0.0 | 1.0 | 0.00 | 0.00 | 0.00 | 96 | 1014.0 |
| 20260506023235 | 45 | 11 | 1.0 | 2.0 | 0.00 | 0.00 | 0.00 | 96 | 1014.0 |
| 20260506022736 | 45 | 261 | 0.0 | 2.0 | 0.00 | 0.00 | 0.00 | 96 | 1015.0 |
| 20260506022235 | 45 | 359 | 0.0 | 1.0 | 0.00 | 0.00 | 0.00 | 96 | 1014.0 |
| 20260506021735 | 45 | 346 | 1.0 | 1.0 | 0.00 | 0.00 | 0.00 | 96 | 1014.0 |
| 20260506021235 | 45 | 7 | 0.0 | 2.0 | 0.00 | 0.00 | 0.00 | 96 | 1014.0 |
| 20260506020736 | 45 | 5 | 0.0 | 2.0 | 0.00 | 0.00 | 0.00 | 95 | 1014.0 |
| 20260506020235 | 45 | 269 | 0.0 | 2.0 | 0.00 | 0.00 | 0.00 | 96 | 1014.0 |
| 20260506015735 | 45 | 113 | 0.0 | 1.0 | 0.00 | 0.00 | 0.00 | 95 | 1014.0 |
| 20260506015236 | 45 | 311 | 1.0 | 2.0 | 0.00 | 0.00 | 0.00 | 95 | 1014.0 |
| 20260506014736 | 45 | 310 | 1.0 | 2.0 | 0.00 | 0.00 | 0.00 | 95 | 1014.0 |
| 20260506014235 | 45 | 344 | 2.0 | 3.0 | 0.00 | 0.00 | 0.00 | 95 | 1014.0 |
| 20260506013736 | 45 | 283 | 0.0 | 2.0 | 0.00 | 0.00 | 0.00 | 95 | 1014.0 |
| 20260506013236 | 45 | 217 | 0.0 | 3.0 | 0.00 | 0.00 | 0.00 | 95 | 1014.0 |
| 20260506012736 | 45 | 39 | 2.0 | 3.0 | 0.00 | 0.00 | 0.00 | 95 | 1014.0 |
| 20260506012235 | 45 | 304 | 0.0 | 2.0 | 0.00 | 0.00 | 0.00 | 94 | 1014.0 |
| 20260506011735 | 45 | 89 | 0.0 | 2.0 | 0.00 | 0.00 | 0.00 | 94 | 1014.0 |
| 20260506011236 | 45 | 89 | 0.0 | 3.0 | 0.00 | 0.00 | 0.00 | 94 | 1014.0 |
| 20260506010735 | 45 | 18 | 3.0 | 5.0 | 0.00 | 0.00 | 0.00 | 94 | 1013.0 |
| 20260506010235 | 45 | 352 | 3.0 | 3.0 | 0.00 | 0.00 | 0.00 | 94 | 1014.0 |
| 20260506005736 | 45 | 132 | 0.0 | 4.0 | 0.00 | 0.00 | 0.00 | 94 | 1013.0 |
| 20260506005236 | 45 | 248 | 2.0 | 3.0 | 0.00 | 0.00 | 0.00 | 94 | 1014.0 |
| 20260506004736 | 45 | 42 | 4.0 | 5.0 | 0.00 | 0.00 | 0.00 | 94 | 1014.0 |
| 20260506004235 | 46 | 6 | 2.0 | 4.0 | 0.00 | 0.00 | 0.00 | 94 | 1013.0 |
| 20260506003735 | 46 | 320 | 3.0 | 5.0 | 0.00 | 0.00 | 0.00 | 94 | 1013.0 |
| 20260506003235 | 46 | 315 | 5.0 | 5.0 | 0.00 | 0.00 | 0.00 | 95 | 1013.0 |
| 20260506002736 | 46 | 334 | 3.0 | 3.0 | 0.00 | 0.00 | 0.00 | 94 | 1013.0 |
| 20260506002236 | 46 | 89 | 0.0 | 2.0 | 0.00 | 0.00 | 0.00 | 94 | 1013.0 |
| 20260506001735 | 46 | 9 | 0.0 | 7.0 | 0.00 | 0.00 | 0.00 | 94 | 1013.0 |
| 20260506001235 | 46 | 340 | 2.0 | 3.0 | 0.00 | 0.00 | 0.00 | 94 | 1013.0 |
| 20260506000736 | 46 | 258 | 0.0 | 3.0 | 0.00 | 0.00 | 0.00 | 94 | 1013.0 |
| 20260506000235 | 46 | 312 | 3.0 | 4.0 | 0.00 | 0.00 | 0.00 | 94 | 1013.0 |
| 20260505235735 | 46 | 0 | 2.0 | 5.0 | 0.00 | 0.00 | 0.00 | 94 | 1013.0 |
| 20260505235236 | 46 | 298 | 0.0 | 3.0 | 0.00 | 0.00 | 0.00 | 94 | 1013.0 |
| 20260505234735 | 46 | 262 | 0.0 | 4.0 | 0.00 | 0.00 | 0.00 | 94 | 1013.0 |
| 20260505234235 | 46 | 271 | 0.0 | 3.0 | 0.00 | 0.00 | 0.00 | 94 | 1013.0 |
| 20260505233736 | 46 | 2 | 2.0 | 3.0 | 0.00 | 0.00 | 0.00 | 94 | 1012.0 |
| 20260505233235 | 47 | 323 | 2.0 | 3.0 | 0.00 | 0.00 | 0.00 | 93 | 1012.0 |
| 20260505232735 | 47 | 14 | 3.0 | 3.0 | 0.00 | 0.00 | 0.00 | 93 | 1012.0 |
| 20260505232235 | 47 | 323 | 3.0 | 5.0 | 0.00 | 0.00 | 0.00 | 93 | 1013.0 |
| 20260505231736 | 47 | 294 | 1.0 | 4.0 | 0.00 | 0.00 | 0.00 | 92 | 1012.0 |
| 20260505231236 | 47 | 272 | 3.0 | 3.0 | 0.00 | 0.00 | 0.00 | 92 | 1012.0 |
| 20260505230735 | 47 | 293 | 2.0 | 5.0 | 0.00 | 0.00 | 0.00 | 92 | 1012.0 |
| 20260505230236 | 48 | 321 | 3.0 | 4.0 | 0.00 | 0.00 | 0.00 | 92 | 1012.0 |
| 20260505225736 | 48 | 32 | 0.0 | 3.0 | 0.00 | 0.00 | 0.00 | 91 | 1012.0 |
| 20260505225235 | 48 | 42 | 2.0 | 3.0 | 0.00 | 0.00 | 0.00 | 91 | 1012.0 |
| 20260505224735 | 48 | 317 | 2.0 | 3.0 | 0.00 | 0.00 | 0.00 | 90 | 1012.0 |
| 20260505224236 | 48 | 306 | 1.0 | 3.0 | 0.00 | 0.00 | 0.00 | 89 | 1012.0 |
| 20260505223736 | 48 | 302 | 2.0 | 4.0 | 0.00 | 0.00 | 0.00 | 89 | 1012.0 |
| 20260505223236 | 48 | 325 | 3.0 | 5.0 | 0.00 | 0.00 | 0.00 | 88 | 1012.0 |
| 20260505222735 | 48 | 49 | 3.0 | 4.0 | 0.00 | 0.00 | 0.00 | 89 | 1011.0 |
| 20260505222235 | 48 | 3 | 0.0 | 3.0 | 0.00 | 0.00 | 0.00 | 89 | 1012.0 |
| 20260505221735 | 48 | 14 | 0.0 | 2.0 | 0.00 | 0.00 | 0.00 | 89 | 1012.0 |
| 20260505221235 | 48 | 315 | 2.0 | 4.0 | 0.00 | 0.00 | 0.00 | 89 | 1012.0 |
| 20260505220735 | 48 | 43 | 4.0 | 4.0 | 0.00 | 0.00 | 0.00 | 89 | 1012.0 |
| 20260505220237 | 48 | 328 | 3.0 | 4.0 | 0.00 | 0.00 | 0.00 | 89 | 1012.0 |